Regional Weather Roundup
Issued by NWS Cleveland, OH

Home | Current Version | Previous Version | Graphics & Text | Print | Product List | Glossary On
Versions: 1 2 3 4 5 6 7 8 9 10 11 12 13 14 15 16 17 18 19 20 21 22 23 24 25 26 27 28 29 30 31 32 33 34 35 36 37 38 39 40 41 42 43 44 45 46 47 48 49 50
000
ASUS41 KCLE 301310
RWRCLE
OHIO REGIONAL WEATHER ROUNDUP
NATIONAL WEATHER SERVICE WILMINGTON, OH
900 AM EDT SAT MAY 30 2015

NOTE: "FAIR" INDICATES FEW OR NO CLOUDS BELOW 12,000 FEET WITH NO
SIGNIFICANT WEATHER AND/OR OBSTRUCTIONS TO VISIBILITY.

OHZ001>008-015>018-024>027-034-035-043-044-301400-
   NORTHWEST OHIO

CITY           SKY/WX    TMP DP  RH WIND       PRES   REMARKS
DEFIANCE       PTSUNNY   73  66  78 SW9       30.02S
FINDLAY        SUNNY     75  68  78 SW13      30.03S
TOLEDO EXPRESS SUNNY     74  66  76 SW13      30.01S
TOLEDO EXEC    SUNNY     75  66  73 SW14      30.02S
LIMA           SUNNY     73  67  81 SW8       30.05S
$$

OHZ009>014-019>023-028>033-038-089-301400-
   NORTHEAST OHIO

CITY           SKY/WX    TMP DP  RH WIND       PRES   REMARKS
CLE-HOPKINS    MOSUNNY   75  66  73 S10       30.07S
CLE-LAKEFRONT  MOSUNNY   77  66  68 S14       30.04S
CUY CO. ARPT   NOT AVBL
LORAIN-ELYRIA  MOSUNNY   75  67  76 SW12      30.06R
ASHTABULA      CLOUDY    73  66  78 SW12      30.08R
AKRON-CANTON   CLOUDY    75  66  73 SW10      30.10S
WOOSTER        CLOUDY    71  66  84 SW10      30.09F
MANSFIELD      PTSUNNY   72  66  81 SW13      30.09R
YOUNGSTOWN     PTSUNNY   72  65  78 S9        30.10S
$$

OHZ042-051>053-060>062-070>072-077>081-301400-
  SOUTHWEST OHIO

CITY           SKY/WX    TMP DP  RH WIND       PRES   REMARKS
CINC-COVINGTON MOSUNNY   74  66  76 S12       30.09S
CINC-LUNKEN    PTSUNNY   71  66  84 S7        30.09S
HAMILTON       SUNNY     76  68  76 SW7       30.09R
DAYTON         MOSUNNY   74  67  78 SW10      30.09R
WRIGHT-PAT AFB SUNNY     75  68  78 S12       30.07S
DAYTON GENERAL SUNNY     73  67  81 SW12      30.08S
WILMINGTON     MOSUNNY   72  66  81 S10       30.09S
$$

OHZ036-037-039>041-045>050-054>059-063>069-073>076-082>088-301400-
  CENTRAL AND SOUTHEAST OHIO

CITY           SKY/WX    TMP DP  RH WIND       PRES   REMARKS
COLUMBUS       LGT RAIN  72  66  81 S7        30.09S
OSU AIRPORT    PTSUNNY   75  66  73 SW12      30.09S
BOLTON FIELD   CLOUDY    73  66  78 S13G20    30.10R
RICKENBACK AFB LGT RAIN  71  66  85 S8        30.09S
NEWARK         PTSUNNY   73  66  78 SW7       30.09S
MARION         PTSUNNY   73  66  78 SW13      30.08S
LANCASTER      PTSUNNY   75  66  73 S9        30.10S
ZANESVILLE     MOSUNNY   74  65  73 S8        30.12R
NEW PHILLY     PTSUNNY   74  65  73 VRB3      30.12R
$$



USA.gov is the U.S. government's official web portal to all federal, state and local government web resources and services.